TimeCST,TemperatureF,Dew PointF,Humidity,Sea Level PressureIn,VisibilityMPH,Wind Direction,Wind SpeedMPH,Gust SpeedMPH,PrecipitationIn,Events,Conditions,WindDirDegrees,DateUTC
12:53 AM,36.0,25.0,64,30.32,10.0,South,4.6,-,N/A,,Overcast,180,2013-01-05 06:53:00
1:53 AM,39.9,25.0,55,30.30,10.0,South,9.2,-,0.00,Rain,Light Rain,180,2013-01-05 07:53:00
2:53 AM,37.9,27.0,65,30.32,10.0,SSW,5.8,-,0.00,Rain,Light Rain,210,2013-01-05 08:53:00
3:17 AM,39.2,30.2,70,30.30,10.0,SSW,10.4,-,0.00,Rain,Light Rain,200,2013-01-05 09:17:00
3:43 AM,37.4,28.4,70,30.29,10.0,SSE,5.8,-,0.00,,Overcast,150,2013-01-05 09:43:00
3:53 AM,39.0,28.0,65,30.30,10.0,South,10.4,-,0.00,,Overcast,180,2013-01-05 09:53:00
4:53 AM,39.9,30.9,70,30.28,10.0,South,11.5,-,N/A,,Overcast,190,2013-01-05 10:53:00
5:53 AM,39.9,32.0,73,30.27,10.0,South,8.1,-,N/A,,Overcast,180,2013-01-05 11:53:00
6:53 AM,39.9,32.0,73,30.27,10.0,SSE,10.4,-,N/A,,Overcast,160,2013-01-05 12:53:00
7:53 AM,39.0,30.0,70,30.28,10.0,South,8.1,-,N/A,,Overcast,170,2013-01-05 13:53:00
8:33 AM,39.2,28.4,65,30.27,10.0,South,10.4,-,N/A,,Overcast,170,2013-01-05 14:33:00
8:53 AM,39.9,28.9,65,30.28,10.0,SSE,9.2,-,N/A,,Overcast,160,2013-01-05 14:53:00
9:53 AM,42.1,30.9,65,30.27,10.0,South,12.7,-,N/A,,Overcast,190,2013-01-05 15:53:00
10:53 AM,45.0,33.1,63,30.24,10.0,South,15.0,-,N/A,,Partly Cloudy,190,2013-01-05 16:53:00
11:37 AM,44.6,32.0,61,30.22,10.0,SSW,10.4,18.4,N/A,,Overcast,200,2013-01-05 17:37:00
11:48 AM,44.6,32.0,61,30.22,10.0,SSW,8.1,18.4,N/A,,Overcast,210,2013-01-05 17:48:00
11:53 AM,45.0,32.0,60,30.23,10.0,SW,8.1,16.1,N/A,,Overcast,220,2013-01-05 17:53:00
12:53 PM,44.1,30.0,58,30.21,10.0,WSW,16.1,-,N/A,,Overcast,240,2013-01-05 18:53:00
1:53 PM,46.0,30.9,56,30.19,10.0,SW,6.9,-,N/A,,Overcast,220,2013-01-05 19:53:00
2:53 PM,46.9,30.0,52,30.17,10.0,SW,9.2,-,N/A,,Mostly Cloudy,220,2013-01-05 20:53:00
3:53 PM,46.9,30.0,52,30.18,10.0,WSW,9.2,-,N/A,,Clear,250,2013-01-05 21:53:00
4:53 PM,46.0,30.0,54,30.20,10.0,WSW,8.1,-,N/A,,Clear,250,2013-01-05 22:53:00
5:53 PM,41.0,30.0,65,30.21,10.0,Calm,Calm,-,N/A,,Clear,0,2013-01-05 23:53:00
6:53 PM,37.0,28.9,73,30.24,10.0,Calm,Calm,-,N/A,,Clear,0,2013-01-06 00:53:00
7:53 PM,37.0,28.9,73,30.23,10.0,SSE,3.5,-,N/A,,Clear,160,2013-01-06 01:53:00
8:53 PM,37.0,30.0,76,30.24,10.0,South,4.6,-,N/A,,Clear,190,2013-01-06 02:53:00
9:53 PM,36.0,28.9,76,30.25,9.0,Calm,Calm,-,N/A,,Clear,0,2013-01-06 03:53:00
10:53 PM,28.0,25.0,88,30.28,10.0,NW,4.6,-,N/A,,Clear,310,2013-01-06 04:53:00
11:53 PM,33.1,28.0,82,30.29,10.0,West,8.1,-,N/A,,Clear,280,2013-01-06 05:53:00